Precipitable_Water
0.56 0.55 0.55 0.55 0.55 0.54 0.52 0.50 0.49 0.49 0.49 0.51 0.51 0.51 0.51 0.51 0.50 0.50 0.48 0.47 0.46 0.46 0.45 0.43 0.43 0.43 0.43 0.43 0.43 0.44 0.45 0.39 0.33 0.31 0.27 0.37 0.42 0.45 0.41 0.42 0.40 0.39 0.37 0.31 0.24 0.22 0.18 0.19 0.18 0.21 0.19 0.19 0.18 0.17 0.20 0.19 0.20 0.18 0.12 0.11 0.10 0.14 0.13 0.18 0.17 0.19 0.21 0.18 0.20 0.21 0.23 0.22 0.21 0.25 0.26 0.28 0.27 0.28 0.30 0.29 0.32 0.34 0.34 0.37 0.40 0.42 0.43 0.47
0.54 0.55 0.55 0.53 0.52 0.52 0.51 0.50 0.48 0.48 0.49 0.51 0.52 0.52 0.51 0.51 0.51 0.47 0.47 0.48 0.47 0.46 0.45 0.44 0.44 0.44 0.45 0.44 0.44 0.46 0.43 0.40 0.31 0.27 0.27 0.41 0.46 0.47 0.43 0.39 0.38 0.37 0.35 0.26 0.23 0.22 0.19 0.17 0.19 0.20 0.17 0.16 0.23 0.16 0.23 0.15 0.22 0.14 0.13 0.13 0.10 0.16 0.18 0.23 0.23 0.23 0.21 0.20 0.22 0.22 0.24 0.23 0.23 0.24 0.26 0.21 0.23 0.25 0.26 0.28 0.30 0.31 0.34 0.38 0.40 0.42 0.42 0.44
0.56 0.54 0.52 0.52 0.50 0.49 0.49 0.49 0.49 0.48 0.50 0.51 0.51 0.51 0.51 0.50 0.49 0.47 0.48 0.49 0.48 0.46 0.45 0.45 0.46 0.46 0.45 0.47 0.46 0.46 0.41 0.34 0.29 0.25 0.29 0.47 0.45 0.43 0.40 0.38 0.38 0.39 0.34 0.26 0.28 0.26 0.22 0.20 0.21 0.20 0.18 0.16 0.19 0.17 0.21 0.16 0.21 0.19 0.16 0.12 0.15 0.21 0.22 0.25 0.25 0.24 0.25 0.24 0.22 0.23 0.24 0.24 0.24 0.25 0.28 0.23 0.23 0.25 0.24 0.25 0.28 0.29 0.31 0.34 0.38 0.41 0.42 0.43
0.54 0.53 0.52 0.51 0.50 0.49 0.49 0.50 0.50 0.49 0.50 0.51 0.50 0.49 0.49 0.49 0.48 0.49 0.49 0.48 0.48 0.47 0.46 0.47 0.47 0.48 0.47 0.46 0.48 0.47 0.40 0.28 0.19 0.32 0.38 0.44 0.43 0.41 0.38 0.39 0.40 0.39 0.39 0.36 0.33 0.28 0.27 0.25 0.22 0.21 0.18 0.16 0.17 0.21 0.17 0.20 0.17 0.20 0.18 0.15 0.17 0.22 0.21 0.24 0.27 0.27 0.26 0.26 0.24 0.23 0.24 0.22 0.25 0.27 0.27 0.25 0.22 0.23 0.25 0.28 0.27 0.28 0.31 0.34 0.37 0.39 0.42 0.42
0.52 0.52 0.52 0.52 0.51 0.51 0.50 0.49 0.49 0.50 0.50 0.49 0.48 0.48 0.49 0.49 0.50 0.49 0.49 0.48 0.49 0.48 0.49 0.49 0.49 0.48 0.48 0.48 0.45 0.46 0.30 0.18 0.25 0.33 0.41 0.41 0.40 0.39 0.39 0.39 0.40 0.40 0.40 0.37 0.33 0.29 0.27 0.23 0.22 0.21 0.19 0.15 0.18 0.18 0.19 0.21 0.24 0.21 0.18 0.20 0.21 0.23 0.20 0.25 0.26 0.27 0.26 0.26 0.24 0.24 0.22 0.22 0.28 0.28 0.27 0.26 0.21 0.21 0.25 0.28 0.31 0.32 0.34 0.35 0.36 0.39 0.41 0.42
0.51 0.52 0.52 0.50 0.50 0.50 0.49 0.48 0.48 0.49 0.49 0.48 0.47 0.48 0.49 0.50 0.50 0.50 0.49 0.49 0.49 0.50 0.51 0.51 0.51 0.48 0.49 0.49 0.48 0.42 0.23 0.12 0.29 0.32 0.44 0.41 0.39 0.39 0.39 0.39 0.41 0.42 0.42 0.36 0.30 0.27 0.25 0.23 0.21 0.18 0.18 0.17 0.17 0.16 0.20 0.22 0.24 0.16 0.20 0.21 0.24 0.26 0.24 0.27 0.27 0.27 0.27 0.25 0.25 0.24 0.26 0.28 0.26 0.25 0.28 0.27 0.25 0.26 0.31 0.32 0.33 0.34 0.36 0.38 0.39 0.39 0.39 0.41
0.53 0.53 0.52 0.52 0.50 0.48 0.48 0.47 0.47 0.48 0.47 0.48 0.48 0.49 0.49 0.50 0.50 0.50 0.50 0.50 0.51 0.52 0.52 0.52 0.52 0.50 0.48 0.51 0.50 0.37 0.24 0.28 0.36 0.39 0.44 0.42 0.40 0.40 0.39 0.40 0.41 0.41 0.40 0.35 0.31 0.26 0.25 0.22 0.21 0.18 0.18 0.18 0.19 0.19 0.21 0.22 0.24 0.21 0.18 0.22 0.22 0.26 0.25 0.28 0.26 0.28 0.28 0.27 0.27 0.29 0.31 0.27 0.27 0.23 0.29 0.27 0.29 0.31 0.33 0.34 0.34 0.36 0.38 0.39 0.38 0.39 0.39 0.40
0.56 0.55 0.53 0.54 0.52 0.48 0.46 0.47 0.47 0.46 0.46 0.48 0.48 0.49 0.50 0.50 0.51 0.51 0.51 0.52 0.53 0.53 0.54 0.53 0.52 0.50 0.51 0.41 0.28 0.28 0.23 0.22 0.40 0.51 0.47 0.44 0.41 0.39 0.40 0.38 0.40 0.43 0.39 0.35 0.33 0.28 0.26 0.22 0.20 0.21 0.19 0.17 0.20 0.20 0.23 0.21 0.23 0.20 0.19 0.23 0.24 0.25 0.26 0.28 0.28 0.28 0.28 0.28 0.30 0.30 0.27 0.27 0.28 0.27 0.28 0.26 0.30 0.32 0.34 0.36 0.36 0.37 0.38 0.39 0.38 0.38 0.39 0.40
0.60 0.60 0.59 0.57 0.54 0.51 0.49 0.47 0.47 0.46 0.48 0.48 0.49 0.49 0.51 0.51 0.53 0.53 0.53 0.53 0.54 0.53 0.53 0.54 0.52 0.51 0.56 0.41 0.29 0.19 0.17 0.44 0.50 0.51 0.47 0.43 0.40 0.39 0.40 0.37 0.44 0.42 0.40 0.38 0.37 0.33 0.28 0.25 0.24 0.24 0.19 0.20 0.24 0.21 0.23 0.20 0.19 0.23 0.23 0.25 0.25 0.25 0.27 0.29 0.29 0.29 0.29 0.29 0.30 0.28 0.27 0.29 0.30 0.32 0.28 0.29 0.31 0.34 0.36 0.36 0.37 0.38 0.37 0.37 0.38 0.39 0.39 0.40
0.64 0.62 0.60 0.59 0.58 0.56 0.53 0.51 0.48 0.48 0.49 0.48 0.48 0.50 0.51 0.53 0.55 0.55 0.55 0.55 0.54 0.55 0.54 0.54 0.53 0.54 0.47 0.35 0.30 0.17 0.38 0.59 0.55 0.52 0.47 0.43 0.42 0.42 0.42 0.43 0.45 0.42 0.38 0.39 0.38 0.34 0.30 0.31 0.28 0.30 0.27 0.25 0.27 0.24 0.26 0.24 0.22 0.28 0.27 0.27 0.27 0.28 0.28 0.30 0.29 0.31 0.32 0.31 0.33 0.29 0.29 0.30 0.33 0.31 0.26 0.34 0.36 0.37 0.37 0.37 0.39 0.38 0.37 0.38 0.38 0.39 0.40 0.41
0.66 0.65 0.63 0.61 0.60 0.59 0.57 0.54 0.52 0.50 0.50 0.49 0.49 0.51 0.51 0.54 0.55 0.56 0.56 0.56 0.56 0.55 0.54 0.54 0.56 0.52 0.36 0.35 0.24 0.18 0.63 0.60 0.58 0.52 0.48 0.45 0.42 0.40 0.41 0.44 0.46 0.43 0.41 0.41 0.38 0.40 0.38 0.36 0.36 0.33 0.29 0.26 0.28 0.27 0.27 0.28 0.31 0.29 0.29 0.29 0.29 0.29 0.30 0.31 0.31 0.31 0.32 0.31 0.34 0.32 0.30 0.32 0.33 0.32 0.28 0.33 0.37 0.38 0.36 0.36 0.37 0.37 0.37 0.38 0.39 0.40 0.41 0.41
0.66 0.66 0.65 0.63 0.62 0.61 0.58 0.56 0.53 0.52 0.51 0.51 0.51 0.51 0.52 0.52 0.55 0.55 0.57 0.57 0.56 0.55 0.56 0.56 0.55 0.49 0.42 0.32 0.24 0.27 0.61 0.60 0.60 0.53 0.52 0.50 0.44 0.46 0.48 0.46 0.46 0.44 0.42 0.38 0.38 0.40 0.40 0.38 0.37 0.31 0.24 0.33 0.24 0.29 0.28 0.32 0.30 0.30 0.30 0.24 0.26 0.28 0.26 0.30 0.28 0.30 0.32 0.30 0.34 0.34 0.29 0.27 0.29 0.27 0.32 0.35 0.37 0.37 0.36 0.35 0.36 0.36 0.37 0.38 0.39 0.40 0.41 0.41
0.68 0.66 0.65 0.64 0.62 0.61 0.60 0.58 0.57 0.54 0.52 0.51 0.51 0.51 0.51 0.53 0.55 0.57 0.57 0.56 0.56 0.56 0.56 0.57 0.55 0.50 0.35 0.22 0.27 0.45 0.60 0.63 0.57 0.52 0.51 0.52 0.50 0.52 0.51 0.49 0.47 0.47 0.46 0.42 0.39 0.40 0.41 0.40 0.38 0.32 0.35 0.31 0.29 0.25 0.32 0.34 0.31 0.31 0.29 0.26 0.24 0.24 0.22 0.28 0.30 0.31 0.30 0.31 0.34 0.33 0.19 0.23 0.27 0.30 0.33 0.36 0.36 0.36 0.35 0.35 0.36 0.36 0.37 0.38 0.39 0.40 0.41 0.43
0.68 0.68 0.66 0.65 0.63 0.61 0.60 0.60 0.60 0.57 0.54 0.51 0.51 0.50 0.50 0.53 0.54 0.57 0.57 0.55 0.57 0.56 0.56 0.57 0.55 0.46 0.32 0.23 0.39 0.52 0.62 0.61 0.56 0.50 0.48 0.52 0.45 0.44 0.47 0.49 0.50 0.50 0.50 0.44 0.44 0.45 0.42 0.44 0.40 0.36 0.39 0.32 0.28 0.38 0.31 0.30 0.32 0.24 0.27 0.27 0.21 0.19 0.19 0.28 0.29 0.31 0.28 0.33 0.33 0.33 0.20 0.22 0.28 0.31 0.35 0.37 0.37 0.35 0.33 0.35 0.36 0.37 0.38 0.39 0.40 0.42 0.43 0.45
0.68 0.67 0.66 0.65 0.64 0.62 0.59 0.60 0.59 0.58 0.57 0.54 0.51 0.50 0.51 0.50 0.55 0.56 0.58 0.56 0.57 0.57 0.57 0.58 0.53 0.37 0.24 0.26 0.47 0.61 0.64 0.59 0.47 0.46 0.50 0.46 0.43 0.41 0.42 0.46 0.45 0.46 0.47 0.46 0.45 0.46 0.46 0.44 0.40 0.34 0.31 0.37 0.36 0.30 0.26 0.26 0.27 0.27 0.21 0.18 0.22 0.19 0.21 0.27 0.31 0.30 0.26 0.30 0.34 0.30 0.22 0.23 0.28 0.31 0.35 0.38 0.38 0.37 0.34 0.35 0.36 0.37 0.38 0.40 0.41 0.42 0.43 0.44
0.70 0.67 0.66 0.65 0.64 0.62 0.60 0.60 0.59 0.57 0.56 0.55 0.52 0.52 0.54 0.54 0.54 0.56 0.58 0.57 0.57 0.59 0.59 0.45 0.42 0.35 0.26 0.20 0.34 0.61 0.52 0.39 0.40 0.50 0.54 0.52 0.45 0.39 0.44 0.43 0.45 0.44 0.44 0.43 0.47 0.46 0.45 0.43 0.34 0.34 0.33 0.34 0.29 0.26 0.24 0.22 0.23 0.25 0.21 0.18 0.18 0.21 0.21 0.24 0.29 0.31 0.32 0.31 0.32 0.30 0.22 0.26 0.27 0.33 0.36 0.39 0.38 0.37 0.36 0.36 0.36 0.37 0.38 0.39 0.40 0.41 0.43 0.44
0.73 0.71 0.67 0.65 0.64 0.63 0.62 0.61 0.60 0.57 0.55 0.54 0.54 0.53 0.56 0.57 0.57 0.56 0.56 0.57 0.55 0.60 0.56 0.36 0.41 0.42 0.18 0.34 0.52 0.34 0.33 0.42 0.55 0.50 0.51 0.56 0.51 0.46 0.43 0.41 0.39 0.40 0.43 0.43 0.43 0.42 0.41 0.36 0.37 0.34 0.34 0.28 0.29 0.27 0.20 0.18 0.17 0.19 0.24 0.19 0.21 0.20 0.22 0.20 0.29 0.32 0.32 0.31 0.27 0.31 0.26 0.26 0.30 0.33 0.36 0.38 0.38 0.37 0.35 0.36 0.37 0.38 0.38 0.39 0.40 0.41 0.42 0.44
0.78 0.76 0.73 0.69 0.66 0.65 0.63 0.62 0.61 0.60 0.57 0.55 0.53 0.53 0.51 0.58 0.60 0.55 0.51 0.53 0.57 0.52 0.52 0.56 0.46 0.32 0.22 0.35 0.24 0.28 0.42 0.42 0.46 0.49 0.51 0.55 0.53 0.47 0.43 0.38 0.40 0.39 0.39 0.36 0.40 0.33 0.37 0.31 0.34 0.25 0.28 0.27 0.26 0.23 0.16 0.13 0.15 0.17 0.19 0.19 0.20 0.23 0.24 0.22 0.22 0.29 0.31 0.31 0.28 0.28 0.27 0.26 0.29 0.34 0.35 0.37 0.38 0.36 0.35 0.36 0.37 0.37 0.38 0.39 0.40 0.41 0.42 0.43
0.81 0.80 0.78 0.75 0.71 0.68 0.67 0.65 0.62 0.61 0.59 0.57 0.56 0.59 0.58 0.60 0.59 0.54 0.42 0.43 0.33 0.25 0.19 0.23 0.24 0.14 0.12 0.24 0.33 0.37 0.41 0.49 0.54 0.50 0.45 0.48 0.50 0.49 0.46 0.45 0.41 0.36 0.30 0.28 0.30 0.31 0.34 0.30 0.30 0.24 0.19 0.20 0.21 0.22 0.20 0.20 0.22 0.20 0.22 0.21 0.21 0.19 0.20 0.22 0.27 0.32 0.31 0.28 0.27 0.28 0.26 0.27 0.30 0.32 0.35 0.37 0.38 0.36 0.36 0.37 0.36 0.37 0.38 0.39 0.39 0.40 0.41 0.42
0.80 0.80 0.80 0.79 0.76 0.73 0.70 0.69 0.65 0.63 0.62 0.55 0.51 0.49 0.39 0.28 0.27 0.25 0.38 0.38 0.26 0.21 0.21 0.22 0.26 0.27 0.28 0.29 0.31 0.47 0.56 0.55 0.40 0.44 0.46 0.50 0.45 0.42 0.40 0.40 0.37 0.36 0.30 0.24 0.28 0.30 0.33 0.22 0.19 0.17 0.18 0.20 0.24 0.25 0.25 0.26 0.26 0.25 0.25 0.23 0.22 0.21 0.22 0.27 0.29 0.33 0.35 0.30 0.28 0.29 0.29 0.28 0.29 0.31 0.34 0.36 0.37 0.36 0.35 0.35 0.35 0.36 0.37 0.38 0.39 0.40 0.41 0.43
0.87 0.81 0.78 0.79 0.78 0.76 0.74 0.72 0.69 0.66 0.64 0.60 0.52 0.36 0.21 0.23 0.17 0.15 0.23 0.26 0.29 0.30 0.26 0.28 0.27 0.25 0.25 0.33 0.38 0.38 0.33 0.38 0.45 0.44 0.46 0.57 0.48 0.41 0.36 0.36 0.31 0.26 0.28 0.31 0.27 0.35 0.31 0.21 0.19 0.20 0.21 0.23 0.25 0.28 0.27 0.26 0.26 0.24 0.24 0.23 0.21 0.23 0.20 0.26 0.27 0.33 0.36 0.30 0.27 0.31 0.29 0.28 0.29 0.31 0.33 0.36 0.36 0.34 0.35 0.35 0.34 0.35 0.37 0.38 0.39 0.39 0.41 0.43
1.01 0.92 0.83 0.77 0.77 0.76 0.76 0.74 0.72 0.70 0.69 0.63 0.50 0.34 0.40 0.42 0.47 0.50 0.35 0.21 0.28 0.28 0.28 0.29 0.36 0.30 0.37 0.38 0.44 0.46 0.40 0.32 0.35 0.42 0.50 0.48 0.41 0.30 0.32 0.30 0.27 0.22 0.30 0.31 0.30 0.26 0.23 0.19 0.20 0.23 0.27 0.29 0.28 0.27 0.28 0.26 0.24 0.26 0.23 0.23 0.22 0.22 0.26 0.29 0.30 0.34 0.35 0.32 0.27 0.31 0.28 0.27 0.30 0.32 0.34 0.34 0.34 0.35 0.36 0.36 0.35 0.36 0.37 0.37 0.38 0.39 0.41 0.42
1.09 1.04 0.96 0.86 0.78 0.75 0.75 0.75 0.73 0.74 0.64 0.53 0.43 0.41 0.45 0.58 0.66 0.65 0.50 0.34 0.24 0.31 0.31 0.30 0.27 0.27 0.30 0.39 0.43 0.47 0.30 0.25 0.23 0.36 0.40 0.43 0.36 0.33 0.32 0.26 0.24 0.25 0.27 0.28 0.21 0.21 0.18 0.21 0.23 0.28 0.30 0.28 0.27 0.28 0.27 0.27 0.27 0.24 0.24 0.21 0.19 0.24 0.23 0.20 0.28 0.32 0.34 0.32 0.29 0.30 0.28 0.27 0.30 0.32 0.32 0.34 0.35 0.35 0.38 0.38 0.38 0.39 0.37 0.36 0.38 0.40 0.41 0.42
1.16 1.11 1.06 0.99 0.89 0.78 0.74 0.72 0.76 0.69 0.58 0.53 0.48 0.44 0.64 0.70 0.68 0.63 0.41 0.25 0.20 0.23 0.27 0.27 0.29 0.28 0.26 0.27 0.40 0.37 0.27 0.28 0.29 0.29 0.47 0.39 0.30 0.36 0.31 0.26 0.23 0.24 0.22 0.24 0.22 0.20 0.18 0.25 0.30 0.30 0.31 0.29 0.26 0.28 0.27 0.25 0.22 0.26 0.25 0.23 0.23 0.24 0.26 0.26 0.27 0.32 0.35 0.35 0.35 0.31 0.27 0.25 0.26 0.26 0.27 0.31 0.36 0.36 0.36 0.38 0.39 0.39 0.39 0.40 0.41 0.41 0.41 0.40
1.26 1.21 1.14 1.07 1.00 0.91 0.78 0.74 0.62 0.58 0.62 0.55 0.49 0.57 0.68 0.72 0.71 0.67 0.35 0.24 0.23 0.23 0.36 0.31 0.34 0.32 0.31 0.45 0.45 0.32 0.33 0.32 0.31 0.36 0.41 0.37 0.32 0.31 0.27 0.32 0.27 0.21 0.22 0.24 0.25 0.23 0.22 0.28 0.32 0.28 0.28 0.28 0.26 0.24 0.26 0.26 0.22 0.24 0.27 0.27 0.27 0.29 0.28 0.29 0.31 0.30 0.28 0.26 0.32 0.30 0.20 0.17 0.25 0.27 0.27 0.30 0.32 0.32 0.36 0.36 0.37 0.38 0.39 0.40 0.38 0.38 0.41 0.43
1.33 1.27 1.22 1.16 1.08 1.00 0.93 0.63 0.56 0.62 0.54 0.44 0.46 0.56 0.67 0.71 0.73 0.64 0.35 0.22 0.15 0.19 0.31 0.19 0.35 0.24 0.39 0.31 0.39 0.36 0.37 0.26 0.35 0.38 0.40 0.39 0.42 0.29 0.31 0.26 0.27 0.18 0.23 0.24 0.23 0.24 0.24 0.30 0.29 0.26 0.26 0.26 0.26 0.25 0.27 0.28 0.23 0.22 0.24 0.31 0.31 0.30 0.30 0.30 0.29 0.29 0.23 0.20 0.29 0.35 0.21 0.15 0.25 0.24 0.27 0.29 0.30 0.30 0.34 0.35 0.36 0.38 0.38 0.38 0.39 0.41 0.42 0.43
1.33 1.32 1.28 1.23 1.17 1.09 0.78 0.55 0.72 0.65 0.44 0.42 0.54 0.61 0.67 0.63 0.76 0.64 0.27 0.20 0.15 0.24 0.19 0.28 0.29 0.33 0.39 0.35 0.34 0.35 0.16 0.19 0.40 0.43 0.39 0.43 0.33 0.40 0.22 0.22 0.26 0.26 0.28 0.29 0.23 0.19 0.28 0.26 0.26 0.28 0.27 0.25 0.24 0.22 0.26 0.28 0.24 0.21 0.32 0.33 0.33 0.32 0.30 0.30 0.31 0.30 0.28 0.34 0.35 0.34 0.31 0.22 0.17 0.21 0.28 0.30 0.29 0.28 0.30 0.34 0.35 0.37 0.39 0.40 0.41 0.43 0.44 0.46
1.38 1.32 1.29 1.27 1.22 1.13 0.87 0.84 0.73 0.57 0.48 0.60 0.61 0.58 0.68 0.68 0.68 0.62 0.27 0.16 0.13 0.29 0.22 0.29 0.31 0.50 0.40 0.41 0.39 0.25 0.26 0.36 0.23 0.34 0.43 0.44 0.40 0.34 0.25 0.21 0.19 0.19 0.24 0.23 0.13 0.23 0.26 0.25 0.26 0.25 0.26 0.25 0.22 0.23 0.28 0.32 0.27 0.27 0.35 0.37 0.33 0.34 0.33 0.34 0.32 0.30 0.32 0.29 0.23 0.29 0.33 0.24 0.19 0.23 0.30 0.31 0.27 0.27 0.28 0.31 0.33 0.36 0.40 0.42 0.43 0.44 0.45 0.47
1.35 1.36 1.31 1.28 1.24 1.18 1.11 0.90 0.78 0.62 0.69 0.76 0.68 0.59 0.66 0.74 0.58 0.31 0.23 0.15 0.29 0.28 0.55 0.29 0.57 0.42 0.39 0.42 0.36 0.34 0.29 0.33 0.21 0.34 0.44 0.44 0.44 0.36 0.24 0.25 0.26 0.24 0.26 0.23 0.16 0.22 0.28 0.28 0.29 0.28 0.25 0.22 0.26 0.29 0.32 0.32 0.28 0.35 0.40 0.41 0.39 0.38 0.37 0.36 0.33 0.31 0.31 0.28 0.20 0.25 0.30 0.21 0.17 0.22 0.25 0.30 0.28 0.26 0.27 0.30 0.33 0.37 0.40 0.42 0.43 0.45 0.46 0.48
1.32 1.34 1.36 1.34 1.25 1.15 1.07 1.02 0.85 0.85 0.82 0.82 0.77 0.65 0.68 0.56 0.40 0.22 0.18 0.13 0.27 0.20 0.33 0.40 0.35 0.31 0.38 0.30 0.30 0.33 0.28 0.29 0.34 0.38 0.40 0.35 0.38 0.40 0.36 0.39 0.30 0.27 0.25 0.29 0.26 0.27 0.33 0.38 0.39 0.32 0.27 0.28 0.31 0.34 0.36 0.35 0.36 0.43 0.41 0.36 0.36 0.36 0.35 0.36 0.35 0.33 0.30 0.21 0.21 0.27 0.29 0.27 0.18 0.21 0.24 0.24 0.25 0.28 0.30 0.32 0.35 0.38 0.41 0.43 0.44 0.45 0.46 0.47
1.34 1.36 1.38 1.39 1.15 1.12 1.06 0.90 0.91 0.99 0.94 0.89 0.83 0.72 0.58 0.44 0.25 0.19 0.14 0.15 0.21 0.26 0.36 0.34 0.29 0.39 0.32 0.28 0.25 0.33 0.32 0.32 0.32 0.34 0.30 0.37 0.35 0.36 0.35 0.30 0.36 0.29 0.27 0.27 0.25 0.29 0.31 0.33 0.31 0.34 0.38 0.36 0.36 0.33 0.39 0.41 0.41 0.39 0.35 0.33 0.33 0.32 0.35 0.32 0.31 0.34 0.23 0.17 0.24 0.29 0.30 0.31 0.20 0.20 0.28 0.31 0.34 0.35 0.34 0.33 0.35 0.37 0.39 0.41 0.44 0.45 0.47 0.48
1.32 1.30 1.36 1.34 1.35 1.32 0.99 0.85 1.02 1.05 0.99 0.98 0.87 0.65 0.45 0.26 0.32 0.17 0.15 0.21 0.15 0.19 0.23 0.25 0.33 0.31 0.30 0.31 0.26 0.27 0.27 0.31 0.34 0.32 0.27 0.28 0.28 0.27 0.27 0.20 0.24 0.18 0.19 0.19 0.19 0.28 0.25 0.26 0.33 0.35 0.41 0.37 0.33 0.30 0.33 0.38 0.40 0.38 0.36 0.35 0.27 0.23 0.25 0.20 0.25 0.20 0.20 0.17 0.25 0.31 0.32 0.28 0.23 0.25 0.31 0.35 0.36 0.38 0.39 0.38 0.38 0.40 0.41 0.43 0.45 0.47 0.48 0.49
1.28 1.28 1.31 1.31 1.33 1.23 1.19 1.20 1.23 1.05 1.03 0.97 0.80 0.64 0.41 0.28 0.19 0.21 0.18 0.18 0.15 0.25 0.27 0.30 0.26 0.29 0.31 0.30 0.27 0.29 0.33 0.24 0.33 0.33 0.33 0.33 0.28 0.28 0.30 0.27 0.27 0.20 0.13 0.19 0.20 0.21 0.23 0.30 0.32 0.34 0.37 0.39 0.36 0.26 0.28 0.30 0.36 0.36 0.32 0.30 0.26 0.22 0.21 0.17 0.20 0.23 0.21 0.25 0.31 0.31 0.36 0.25 0.27 0.31 0.37 0.36 0.38 0.40 0.42 0.43 0.44 0.44 0.44 0.45 0.46 0.48 0.49 0.50
1.21 1.28 1.22 1.28 1.27 1.27 1.31 1.30 1.20 1.10 1.02 0.96 0.73 0.57 0.44 0.30 0.25 0.29 0.20 0.19 0.23 0.36 0.36 0.29 0.31 0.33 0.31 0.24 0.26 0.31 0.26 0.33 0.31 0.31 0.33 0.28 0.29 0.24 0.28 0.31 0.31 0.26 0.22 0.23 0.19 0.20 0.16 0.16 0.25 0.30 0.25 0.37 0.36 0.32 0.31 0.30 0.33 0.34 0.38 0.35 0.29 0.27 0.22 0.18 0.20 0.17 0.18 0.21 0.27 0.34 0.29 0.21 0.21 0.24 0.35 0.39 0.40 0.43 0.44 0.45 0.46 0.46 0.46 0.47 0.48 0.48 0.49 0.49
1.15 1.21 1.24 1.25 1.27 1.30 1.31 1.31 1.24 1.18 1.04 0.82 0.61 0.48 0.35 0.32 0.33 0.27 0.25 0.23 0.25 0.33 0.32 0.39 0.32 0.31 0.31 0.31 0.35 0.35 0.32 0.26 0.35 0.32 0.31 0.28 0.24 0.25 0.24 0.26 0.31 0.30 0.28 0.19 0.24 0.24 0.19 0.18 0.27 0.36 0.36 0.39 0.35 0.41 0.43 0.39 0.37 0.40 0.41 0.43 0.34 0.29 0.34 0.23 0.25 0.25 0.24 0.25 0.25 0.28 0.26 0.28 0.27 0.36 0.39 0.40 0.41 0.41 0.43 0.44 0.44 0.44 0.45 0.46 0.45 0.46 0.47 0.49
1.03 1.06 1.17 1.13 1.13 1.21 1.28 1.27 1.25 1.18 0.99 0.75 0.54 0.44 0.37 0.37 0.31 0.34 0.31 0.32 0.33 0.29 0.34 0.37 0.36 0.30 0.29 0.29 0.36 0.32 0.42 0.30 0.34 0.33 0.31 0.31 0.30 0.26 0.28 0.28 0.28 0.30 0.25 0.19 0.25 0.19 0.24 0.20 0.33 0.35 0.40 0.38 0.38 0.42 0.42 0.43 0.26 0.35 0.38 0.30 0.33 0.43 0.38 0.32 0.33 0.35 0.34 0.31 0.23 0.31 0.28 0.30 0.36 0.36 0.38 0.39 0.40 0.40 0.42 0.42 0.42 0.43 0.44 0.44 0.44 0.45 0.47 0.48
0.86 0.98 0.90 1.01 1.08 1.23 1.28 1.26 1.22 1.12 0.94 0.71 0.55 0.44 0.46 0.44 0.46 0.41 0.40 0.35 0.36 0.36 0.35 0.25 0.31 0.28 0.28 0.28 0.30 0.32 0.35 0.36 0.35 0.32 0.27 0.34 0.30 0.31 0.29 0.30 0.35 0.33 0.31 0.26 0.25 0.30 0.20 0.21 0.35 0.34 0.32 0.41 0.45 0.46 0.46 0.46 0.45 0.39 0.31 0.34 0.46 0.50 0.46 0.37 0.26 0.30 0.28 0.23 0.22 0.28 0.22 0.24 0.26 0.20 0.35 0.36 0.37 0.39 0.40 0.40 0.42 0.43 0.44 0.43 0.44 0.46 0.47 0.48
0.79 0.85 0.89 0.91 1.04 1.22 1.28 1.27 1.18 1.05 0.86 0.66 0.51 0.51 0.55 0.48 0.53 0.50 0.48 0.44 0.43 0.40 0.35 0.30 0.32 0.36 0.30 0.29 0.29 0.32 0.38 0.30 0.31 0.34 0.28 0.33 0.26 0.35 0.32 0.31 0.36 0.35 0.34 0.37 0.27 0.30 0.31 0.22 0.30 0.38 0.38 0.42 0.48 0.47 0.44 0.49 0.51 0.41 0.37 0.50 0.36 0.30 0.29 0.38 0.35 0.23 0.23 0.21 0.22 0.25 0.27 0.26 0.27 0.25 0.31 0.32 0.35 0.36 0.38 0.40 0.41 0.42 0.43 0.43 0.44 0.46 0.48 0.49
0.78 0.76 0.65 0.81 1.07 1.18 1.21 1.24 1.11 0.93 0.74 0.55 0.52 0.50 0.56 0.54 0.57 0.55 0.54 0.51 0.50 0.44 0.37 0.35 0.31 0.38 0.35 0.32 0.33 0.37 0.38 0.29 0.34 0.32 0.28 0.33 0.27 0.33 0.32 0.34 0.32 0.37 0.39 0.40 0.33 0.34 0.35 0.23 0.28 0.41 0.40 0.44 0.45 0.43 0.31 0.37 0.49 0.51 0.52 0.45 0.50 0.42 0.35 0.32 0.33 0.33 0.31 0.23 0.23 0.20 0.25 0.19 0.27 0.29 0.33 0.34 0.36 0.37 0.39 0.40 0.42 0.43 0.44 0.44 0.45 0.46 0.47 0.48
0.67 0.60 0.54 0.79 1.03 1.13 1.19 1.13 0.94 0.82 0.65 0.50 0.52 0.52 0.58 0.54 0.58 0.64 0.64 0.57 0.49 0.44 0.40 0.39 0.40 0.37 0.40 0.37 0.37 0.34 0.40 0.36 0.34 0.33 0.31 0.32 0.29 0.38 0.33 0.39 0.33 0.36 0.40 0.42 0.36 0.39 0.32 0.34 0.24 0.36 0.46 0.45 0.35 0.40 0.35 0.37 0.35 0.40 0.41 0.40 0.43 0.42 0.47 0.44 0.41 0.35 0.30 0.26 0.25 0.22 0.19 0.21 0.29 0.36 0.36 0.36 0.38 0.39 0.41 0.42 0.43 0.45 0.46 0.46 0.46 0.47 0.48 0.49
0.72 0.57 0.54 0.85 0.96 1.10 1.10 0.93 0.74 0.64 0.58 0.60 0.59 0.55 0.60 0.57 0.61 0.66 0.69 0.67 0.58 0.58 0.47 0.40 0.40 0.36 0.38 0.38 0.39 0.42 0.37 0.39 0.38 0.35 0.34 0.32 0.32 0.25 0.37 0.37 0.39 0.36 0.42 0.42 0.40 0.40 0.35 0.36 0.28 0.35 0.37 0.35 0.35 0.45 0.44 0.43 0.42 0.39 0.38 0.36 0.39 0.38 0.36 0.32 0.29 0.42 0.38 0.32 0.25 0.23 0.19 0.23 0.33 0.39 0.39 0.41 0.42 0.42 0.45 0.44 0.45 0.47 0.47 0.47 0.48 0.48 0.49 0.50
0.57 0.43 0.46 0.83 0.96 1.01 0.87 0.64 0.63 0.70 0.62 0.54 0.50 0.55 0.55 0.65 0.62 0.63 0.67 0.66 0.63 0.58 0.61 0.54 0.50 0.45 0.44 0.42 0.42 0.45 0.43 0.41 0.41 0.39 0.39 0.32 0.36 0.34 0.39 0.45 0.44 0.44 0.40 0.37 0.38 0.44 0.43 0.41 0.36 0.32 0.33 0.34 0.41 0.47 0.51 0.52 0.51 0.48 0.45 0.40 0.45 0.44 0.43 0.36 0.28 0.31 0.38 0.35 0.36 0.32 0.26 0.21 0.36 0.40 0.43 0.44 0.44 0.45 0.46 0.47 0.46 0.48 0.49 0.49 0.50 0.50 0.50 0.51
0.52 0.47 0.72 0.86 0.94 0.89 0.74 0.58 0.62 0.61 0.57 0.59 0.64 0.64 0.69 0.65 0.62 0.66 0.63 0.66 0.60 0.64 0.60 0.57 0.54 0.51 0.52 0.50 0.50 0.47 0.47 0.43 0.44 0.40 0.40 0.41 0.40 0.42 0.46 0.48 0.49 0.48 0.45 0.42 0.45 0.49 0.50 0.41 0.36 0.37 0.42 0.45 0.49 0.52 0.52 0.53 0.52 0.47 0.48 0.49 0.47 0.42 0.43 0.40 0.38 0.39 0.35 0.34 0.31 0.30 0.26 0.24 0.35 0.42 0.44 0.46 0.46 0.47 0.49 0.48 0.48 0.48 0.49 0.50 0.51 0.51 0.51 0.51
0.53 0.50 0.57 0.88 0.97 0.88 0.64 0.47 0.48 0.52 0.56 0.60 0.62 0.61 0.67 0.65 0.63 0.62 0.61 0.63 0.61 0.59 0.56 0.54 0.54 0.56 0.50 0.54 0.52 0.47 0.51 0.41 0.49 0.45 0.42 0.44 0.41 0.50 0.51 0.51 0.52 0.47 0.45 0.44 0.41 0.51 0.41 0.44 0.38 0.34 0.34 0.37 0.41 0.45 0.45 0.50 0.50 0.44 0.43 0.45 0.47 0.48 0.48 0.48 0.47 0.46 0.35 0.31 0.31 0.29 0.21 0.22 0.37 0.43 0.45 0.46 0.47 0.47 0.48 0.49 0.49 0.48 0.49 0.50 0.52 0.52 0.53 0.54
0.55 0.61 0.58 0.72 0.86 0.79 0.55 0.58 0.53 0.53 0.53 0.52 0.55 0.54 0.57 0.60 0.66 0.65 0.63 0.62 0.67 0.61 0.59 0.56 0.55 0.55 0.53 0.55 0.52 0.52 0.53 0.47 0.41 0.49 0.46 0.46 0.46 0.52 0.53 0.53 0.54 0.49 0.50 0.52 0.49 0.53 0.42 0.41 0.39 0.32 0.28 0.24 0.23 0.24 0.27 0.33 0.39 0.45 0.47 0.46 0.48 0.47 0.46 0.45 0.38 0.38 0.32 0.28 0.33 0.30 0.25 0.29 0.39 0.42 0.43 0.44 0.46 0.47 0.49 0.50 0.51 0.50 0.50 0.51 0.52 0.54 0.54 0.54
0.45 0.35 0.51 0.53 0.72 0.71 0.63 0.69 0.63 0.57 0.53 0.52 0.50 0.54 0.58 0.54 0.62 0.67 0.67 0.65 0.67 0.66 0.64 0.60 0.62 0.62 0.55 0.52 0.49 0.49 0.49 0.51 0.43 0.42 0.45 0.44 0.46 0.50 0.53 0.54 0.54 0.52 0.53 0.54 0.55 0.52 0.43 0.45 0.42 0.38 0.33 0.29 0.29 0.33 0.41 0.44 0.43 0.39 0.40 0.45 0.46 0.49 0.50 0.47 0.43 0.37 0.29 0.31 0.32 0.31 0.30 0.30 0.35 0.38 0.41 0.44 0.46 0.46 0.48 0.49 0.49 0.50 0.52 0.53 0.55 0.55 0.54 0.54
0.53 0.41 0.43 0.40 0.50 0.60 0.57 0.60 0.57 0.60 0.52 0.56 0.46 0.51 0.50 0.53 0.56 0.60 0.71 0.59 0.66 0.63 0.62 0.60 0.60 0.55 0.53 0.52 0.47 0.47 0.49 0.49 0.53 0.48 0.45 0.43 0.47 0.51 0.56 0.55 0.55 0.55 0.56 0.55 0.58 0.53 0.47 0.42 0.44 0.42 0.39 0.37 0.37 0.39 0.43 0.44 0.40 0.41 0.41 0.42 0.45 0.46 0.46 0.44 0.39 0.32 0.39 0.39 0.30 0.30 0.38 0.36 0.31 0.39 0.43 0.44 0.47 0.48 0.50 0.50 0.50 0.52 0.53 0.55 0.55 0.54 0.55 0.55
0.38 0.43 0.50 0.57 0.44 0.35 0.44 0.49 0.59 0.55 0.54 0.57 0.52 0.54 0.48 0.49 0.52 0.50 0.62 0.65 0.65 0.67 0.57 0.58 0.59 0.58 0.56 0.52 0.51 0.45 0.47 0.46 0.48 0.46 0.49 0.50 0.49 0.54 0.53 0.58 0.55 0.58 0.59 0.57 0.61 0.52 0.46 0.41 0.45 0.44 0.41 0.40 0.40 0.41 0.45 0.45 0.44 0.43 0.44 0.43 0.42 0.44 0.44 0.40 0.37 0.39 0.42 0.36 0.28 0.29 0.38 0.35 0.33 0.38 0.44 0.45 0.50 0.49 0.49 0.51 0.53 0.55 0.56 0.55 0.55 0.54 0.54 0.55
0.51 0.50 0.49 0.62 0.48 0.51 0.43 0.43 0.53 0.54 0.52 0.53 0.52 0.52 0.47 0.47 0.47 0.54 0.54 0.54 0.60 0.60 0.60 0.47 0.50 0.52 0.52 0.55 0.54 0.49 0.48 0.43 0.42 0.47 0.47 0.49 0.50 0.51 0.49 0.54 0.59 0.62 0.59 0.57 0.59 0.59 0.51 0.44 0.44 0.45 0.42 0.42 0.42 0.43 0.46 0.44 0.44 0.45 0.44 0.44 0.44 0.43 0.41 0.40 0.40 0.43 0.44 0.40 0.38 0.36 0.38 0.38 0.37 0.40 0.45 0.48 0.52 0.52 0.52 0.55 0.56 0.55 0.55 0.56 0.55 0.54 0.55 0.56
0.41 0.41 0.39 0.51 0.55 0.54 0.54 0.50 0.45 0.49 0.48 0.54 0.45 0.48 0.48 0.47 0.45 0.50 0.58 0.56 0.50 0.55 0.63 0.52 0.49 0.51 0.54 0.56 0.56 0.51 0.50 0.50 0.47 0.45 0.53 0.53 0.53 0.55 0.51 0.52 0.52 0.60 0.61 0.55 0.56 0.60 0.51 0.44 0.48 0.47 0.43 0.40 0.42 0.46 0.49 0.47 0.46 0.44 0.46 0.47 0.45 0.42 0.41 0.43 0.44 0.45 0.47 0.45 0.42 0.41 0.41 0.39 0.40 0.47 0.47 0.51 0.54 0.55 0.55 0.54 0.54 0.55 0.55 0.55 0.55 0.55 0.55 0.56
0.50 0.55 0.56 0.46 0.43 0.48 0.52 0.52 0.49 0.42 0.41 0.51 0.48 0.48 0.48 0.48 0.46 0.49 0.51 0.58 0.54 0.50 0.55 0.51 0.51 0.54 0.57 0.57 0.58 0.56 0.57 0.56 0.55 0.55 0.58 0.58 0.50 0.57 0.53 0.55 0.59 0.52 0.56 0.55 0.57 0.57 0.55 0.48 0.52 0.49 0.42 0.38 0.42 0.45 0.48 0.50 0.49 0.47 0.45 0.43 0.40 0.39 0.40 0.44 0.44 0.45 0.45 0.41 0.42 0.43 0.40 0.34 0.39 0.50 0.49 0.52 0.53 0.53 0.53 0.53 0.54 0.55 0.56 0.56 0.54 0.55 0.56 0.56
0.53 0.59 0.60 0.52 0.40 0.47 0.46 0.51 0.53 0.48 0.40 0.45 0.48 0.49 0.48 0.46 0.49 0.51 0.47 0.58 0.61 0.62 0.61 0.58 0.56 0.56 0.55 0.55 0.53 0.54 0.57 0.61 0.62 0.64 0.65 0.65 0.65 0.64 0.66 0.64 0.63 0.56 0.54 0.54 0.58 0.52 0.51 0.48 0.48 0.47 0.41 0.38 0.41 0.48 0.48 0.49 0.46 0.41 0.39 0.35 0.37 0.43 0.46 0.47 0.48 0.49 0.48 0.47 0.44 0.39 0.35 0.40 0.45 0.50 0.48 0.50 0.52 0.53 0.53 0.53 0.53 0.55 0.56 0.56 0.56 0.56 0.57 0.58
Wind_Speed
21 20 20 20 19 19 19 19 19 18 18 17 16 16 15 15 14 14 13 13 12 12 11 10 10 10 9 9 9 8 8 8 9 8 9 10 9 9 8 8 8 8 7 7 7 7 6 6 5 4 4 5 5 5 4 4 4 4 4 3 4 4 3 4 4 5 4 4 4 5 4 2 3 4 4 3 3 4 3 3 3 3 3 3 3 3 4 5
21 20 20 20 20 19 19 19 19 19 18 18 17 16 16 15 15 15 14 13 13 12 11 11 10 10 10 9 9 8 8 9 9 9 9 10 9 9 9 8 8 7 7 7 7 7 6 6 6 5 5 5 5 5 5 5 4 4 4 4 5 6 5 5 5 5 5 4 4 4 4 3 4 4 4 5 5 5 3 4 4 4 4 4 4 4 4 5
21 21 20 20 20 20 20 19 19 19 19 18 18 17 17 16 16 15 15 14 13 12 12 11 11 10 10 10 9 9 9 9 9 9 9 9 10 9 9 8 8 7 7 7 7 7 7 7 6 6 5 5 5 5 4 4 5 5 4 4 6 7 5 5 4 5 5 4 3 4 5 4 4 5 5 5 6 6 5 5 5 6 7 6 6 5 5 5
21 21 20 20 20 20 20 20 20 19 19 19 18 18 17 17 16 16 15 15 14 13 12 12 11 11 11 10 10 9 9 9 10 10 9 9 10 10 9 9 8 7 7 7 7 7 7 7 6 6 5 6 6 5 5 5 5 5 5 5 7 6 4 5 4 4 5 4 4 4 4 4 5 5 5 5 5 7 8 8 8 8 9 8 7 7 6 6
21 21 21 20 20 20 20 20 20 20 19 19 19 18 18 17 17 16 16 15 14 14 13 12 12 12 11 10 10 10 9 9 11 10 10 10 10 10 9 9 8 7 7 7 7 7 7 6 6 6 6 6 6 5 6 6 5 5 6 6 6 5 5 5 5 4 4 4 3 3 4 5 5 6 6 6 6 8 9 10 10 9 9 9 8 8 7 6
22 21 21 20 20 20 20 20 20 20 20 20 19 19 18 18 17 17 16 15 15 14 14 13 12 12 11 11 11 10 10 10 11 11 10 10 10 10 9 9 8 8 7 7 7 7 6 6 6 6 6 6 7 6 6 7 5 6 7 6 6 6 5 5 5 4 4 3 4 5 5 5 5 7 8 8 9 9 9 9 9 9 9 9 8 8 8 7
22 21 21 21 20 20 20 20 20 20 20 20 20 19 19 18 18 17 16 16 15 15 14 14 13 12 12 11 11 11 11 11 11 11 11 11 10 10 9 9 8 8 7 7 7 7 6 6 6 6 6 6 7 7 6 6 5 5 7 7 6 6 6 6 6 5 4 4 6 6 6 6 7 8 9 10 11 10 9 8 8 9 8 9 9 9 9 9
22 22 22 21 21 21 21 21 21 21 21 21 20 20 19 19 18 18 17 16 16 16 15 14 13 13 12 12 12 11 11 12 12 12 11 11 11 10 10 9 8 8 8 7 8 8 7 6 7 7 6 7 7 7 7 6 6 6 7 7 6 6 7 7 6 6 6 6 7 6 7 9 9 9 10 11 11 10 10 8 8 9 9 9 9 9 10 10
23 23 22 22 22 21 21 21 21 21 21 21 21 20 20 19 19 18 18 17 17 16 16 15 14 13 13 13 12 12 12 13 13 13 12 12 11 10 10 10 9 8 8 8 8 8 8 7 8 8 8 8 7 7 7 7 7 7 7 7 7 7 8 8 8 8 8 8 7 8 9 11 10 10 12 12 11 11 10 9 10 10 10 10 10 11 11 11
24 24 23 23 22 22 22 22 22 22 22 22 22 21 21 20 19 19 18 18 18 17 17 16 15 14 14 13 12 13 13 13 13 13 13 12 12 11 10 10 10 9 9 9 8 7 8 9 9 8 8 8 7 7 8 7 8 8 7 8 8 8 9 9 9 10 9 9 9 9 11 11 11 10 12 12 11 11 10 10 11 11 12 12 11 12 12 12
25 25 24 24 23 23 23 22 22 23 23 22 22 22 22 21 20 20 19 19 19 18 17 17 16 15 15 14 14 14 13 13 14 14 13 13 12 12 11 11 10 10 10 9 9 8 9 9 9 8 8 8 8 8 8 8 8 8 8 9 10 9 10 10 10 11 9 10 10 10 11 12 11 11 12 12 11 12 11 12 12 12 13 13 13 13 13 13
26 26 25 25 24 24 24 23 23 23 23 23 23 23 22 22 21 21 20 20 20 19 19 18 17 17 16 15 15 15 14 14 14 14 14 13 13 13 12 11 11 11 10 10 10 10 9 9 8 8 9 9 8 8 9 9 9 9 8 10 11 9 10 11 11 11 10 10 11 10 11 12 12 12 12 11 11 11 11 12 13 13 13 13 13 13 13 14
27 27 26 26 25 25 25 24 24 24 24 24 24 24 23 23 22 22 21 21 21 20 20 19 18 18 17 16 17 16 15 15 15 15 14 14 13 13 12 12 11 11 11 10 10 10 9 9 8 8 9 8 9 9 9 9 9 10 9 9 11 10 11 12 10 10 10 11 11 9 11 13 13 13 12 11 11 11 12 13 14 14 14 14 14 14 14 14
29 28 28 27 26 26 26 25 25 25 24 24 24 24 24 24 23 23 22 22 22 21 21 20 19 19 18 18 17 17 17 16 16 15 15 14 14 13 13 12 12 12 11 11 11 10 10 10 9 9 9 8 9 9 9 9 10 11 10 10 11 10 12 12 10 9 10 11 11 9 12 13 14 15 13 12 12 12 13 14 15 15 15 15 15 15 15 15
30 29 29 28 28 27 27 26 26 26 25 25 25 25 25 25 24 24 23 23 23 22 22 21 20 19 19 19 18 18 18 17 17 17 16 16 15 14 14 13 13 12 12 12 11 11 11 10 10 9 10 9 9 9 10 11 11 11 11 12 12 11 13 14 12 11 10 12 11 10 12 13 14 15 13 12 13 13 14 15 15 16 16 16 16 16 16 16
30 30 30 30 29 28 28 27 27 27 26 25 25 25 25 25 25 25 25 24 24 23 22 21 21 20 20 20 19 19 19 19 19 18 17 17 16 15 15 14 13 13 13 12 12 12 11 10 10 10 10 10 9 9 10 11 12 12 12 13 13 12 13 13 12 12 12 12 13 13 13 13 14 14 13 13 14 14 15 16 17 17 17 18 18 18 18 18
32 31 31 30 30 29 29 28 28 28 27 26 26 26 26 26 25 25 25 25 24 23 23 22 22 21 21 20 20 20 20 20 20 19 18 18 17 16 15 15 14 14 13 13 13 12 12 11 12 12 11 11 10 10 11 12 13 14 13 13 14 13 13 13 13 14 12 12 14 15 15 16 16 15 14 15 16 16 17 18 19 19 19 19 19 19 19 19
33 32 32 31 31 30 29 29 29 29 28 27 27 26 26 26 26 25 25 25 25 23 23 23 22 21 22 22 21 20 20 21 20 20 19 18 18 17 16 16 15 14 14 14 14 13 13 13 12 12 12 12 12 11 12 14 13 13 13 13 14 14 14 15 15 14 13 14 16 16 17 19 19 19 18 17 17 18 20 20 20 20 20 20 20 20 20 20
34 34 33 33 32 31 31 30 30 30 29 28 27 27 27 26 26 26 26 26 25 24 24 25 24 22 22 23 22 21 20 21 21 20 20 19 18 17 16 16 15 15 14 14 15 15 14 13 13 13 13 14 14 13 14 15 13 14 14 13 14 15 16 16 16 17 15 16 18 18 20 21 21 20 20 19 19 19 21 21 20 20 20 20 21 21 22 22
35 35 34 34 33 32 32 31 31 30 30 29 28 27 27 26 25 26 27 27 28 27 25 25 26 25 23 22 23 22 21 21 21 21 21 20 19 18 17 16 15 15 16 16 16 16 15 15 15 15 15 15 16 16 15 14 13 14 14 14 15 16 17 17 18 19 17 17 20 21 22 23 22 21 21 20 19 20 22 21 22 22 22 22 22 23 23 23
36 35 35 35 34 34 33 32 32 31 30 30 29 28 28 27 26 27 27 28 30 30 29 27 27 27 25 23 24 24 22 21 22 22 22 21 20 19 18 17 16 16 17 17 16 16 15 16 18 17 17 16 16 17 16 15 15 15 15 16 17 17 18 19 18 19 18 19 22 21 22 24 23 22 22 21 19 21 23 23 24 24 24 24 24 25 24 23
37 37 36 35 35 35 34 33 33 33 32 31 30 29 29 29 28 28 27 28 30 31 31 30 29 29 27 26 26 25 23 23 23 24 24 22 22 21 20 18 18 18 18 17 16 16 17 18 20 19 17 16 16 17 16 17 17 17 16 17 18 18 19 19 19 19 19 20 22 22 23 24 23 22 23 22 22 23 24 24 25 25 24 24 24 25 24 23
38 38 37 36 36 35 35 35 34 34 33 32 31 30 30 29 28 28 28 28 29 30 32 32 32 31 30 28 28 28 26 25 25 26 26 24 24 23 22 20 19 19 19 19 18 18 18 19 20 19 16 16 17 17 16 17 18 18 18 18 19 19 18 19 20 20 20 21 22 23 24 25 23 23 23 23 24 23 24 25 24 24 24 25 25 25 24 25
40 39 38 37 37 36 36 35 35 35 34 34 33 32 31 30 28 28 28 29 30 31 32 33 33 33 33 30 30 30 29 28 27 28 28 26 24 24 23 22 20 20 21 22 20 20 21 21 19 17 16 17 18 18 17 17 19 20 19 19 19 19 19 20 21 21 22 23 22 23 25 25 23 22 22 21 21 22 24 24 24 25 25 25 25 25 25 25
42 41 40 39 38 37 36 36 36 36 35 34 34 34 32 31 29 28 28 29 31 32 32 33 33 34 34 32 31 31 30 30 29 29 29 28 26 24 24 24 22 23 23 22 21 22 23 22 19 17 18 18 19 20 19 18 19 20 20 20 20 19 20 21 21 21 22 23 22 21 22 23 21 20 21 20 20 21 22 21 23 24 24 24 24 25 25 25
43 43 42 40 39 38 36 36 36 36 36 35 35 34 33 32 30 29 28 28 32 33 31 32 32 33 34 33 32 30 29 31 31 30 30 30 28 25 24 25 23 24 23 21 22 23 24 23 20 19 19 19 20 21 20 19 19 21 22 20 20 20 21 21 20 20 22 22 22 20 20 23 23 21 21 21 21 22 21 20 22 23 23 23 24 24 24 24
44 44 44 43 41 40 37 36 36 36 35 35 36 35 34 33 31 30 28 27 32 34 31 32 33 32 33 33 33 30 30 31 29 30 31 31 30 27 26 26 25 24 23 21 24 25 24 23 22 21 20 20 21 21 21 19 19 22 22 19 19 20 21 21 20 21 22 23 23 21 20 25 26 23 21 20 21 21 21 20 21 22 22 23 23 23 23 23
44 44 45 45 45 43 40 37 36 37 36 34 35 36 35 33 31 30 28 27 31 31 30 31 32 32 32 33 34 31 31 30 28 30 31 30 30 28 28 29 26 26 24 24 26 26 23 23 23 22 21 22 22 21 20 18 20 23 21 18 18 19 20 20 20 22 23 23 24 23 20 23 26 24 21 19 19 20 20 19 19 21 22 22 22 22 22 23
45 44 45 46 47 46 43 40 38 37 36 34 34 36 35 33 31 29 27 29 32 32 31 31 31 32 31 32 34 32 30 30 29 30 30 29 30 28 28 29 27 26 26 26 27 27 25 25 24 23 23 24 22 21 20 19 21 21 19 18 19 19 20 20 21 21 22 23 24 23 21 23 26 25 21 18 18 19 18 18 18 20 21 20 21 21 21 22
44 44 44 44 46 47 45 44 41 38 37 35 34 35 34 32 32 29 29 32 34 33 32 32 32 32 31 32 33 32 31 31 30 29 29 29 29 28 27 27 25 26 27 26 27 28 27 26 25 24 24 23 21 20 20 20 20 19 18 19 20 21 21 22 22 21 22 24 24 24 23 23 24 22 18 17 17 17 17 17 18 19 20 20 20 20 21 21
42 44 44 43 43 45 45 46 45 41 39 36 35 36 34 32 32 31 33 34 34 34 34 33 33 33 33 33 33 32 31 31 30 30 30 29 29 28 28 27 26 25 27 28 28 28 27 26 26 26 25 22 20 20 20 20 19 19 20 20 20 22 22 22 22 21 21 23 23 22 21 21 23 21 18 19 19 18 17 17 18 19 20 21 20 20 21 21
41 43 44 42 41 43 43 44 45 44 42 39 37 37 35 33 34 35 36 34 32 35 37 36 35 35 35 35 34 33 31 31 32 32 31 30 30 31 30 30 28 26 28 30 29 28 28 28 28 27 26 24 22 21 21 21 21 20 21 20 20 21 21 22 22 20 21 24 22 20 18 21 25 24 22 22 22 20 18 18 18 20 21 21 21 21 21 21
43 44 44 43 42 42 43 41 41 43 42 40 39 39 37 36 37 40 41 37 34 34 35 35 35 36 35 35 34 33 31 32 32 32 31 30 31 32 32 31 30 28 28 29 28 27 28 29 28 27 28 27 25 24 24 23 23 23 23 22 21 20 20 22 22 21 22 23 22 20 19 22 24 23 22 22 22 21 21 21 21 21 22 22 21 21 21 21
43 44 45 45 43 43 43 41 41 42 42 40 39 38 39 39 40 42 44 43 39 35 33 32 32 34 36 36 35 34 32 33 33 32 32 31 32 33 33 32 32 29 28 27 27 27 27 28 28 27 27 26 26 26 25 24 24 25 24 23 23 21 20 21 21 21 22 22 21 20 19 20 20 19 20 21 22 23 23 23 22 21 21 21 20 20 21 21
43 44 45 46 45 44 43 43 42 41 42 40 39 39 40 40 41 43 45 44 41 38 35 33 31 33 36 35 35 35 34 33 33 32 33 33 34 34 33 33 33 30 28 28 28 27 27 29 29 27 25 25 25 25 23 23 24 25 23 22 24 23 22 22 22 21 21 21 22 21 22 23 22 24 24 24 24 22 21 21 21 20 20 19 19 20 20 21
44 44 45 47 46 44 43 43 42 41 41 39 39 42 43 41 40 41 42 42 42 40 37 34 33 35 37 36 36 36 34 33 33 33 34 34 34 35 34 33 33 32 31 30 28 27 26 28 29 26 25 25 25 24 23 23 24 23 23 24 24 22 22 22 23 22 20 22 23 22 25 26 24 26 25 22 22 20 19 21 20 19 19 19 20 20 20 21
45 45 46 48 48 45 43 43 42 42 41 39 41 43 43 43 42 40 38 38 39 40 39 39 37 37 38 37 38 38 36 34 34 34 34 34 35 36 35 34 33 34 33 30 29 29 26 27 28 26 26 27 25 23 22 23 23 22 23 24 22 21 21 21 21 21 20 23 24 23 26 25 22 23 21 18 19 21 21 20 18 18 19 21 22 21 21 21
45 45 46 49 49 47 46 43 42 42 40 39 42 42 41 43 44 42 39 37 36 37 39 41 40 38 39 39 38 38 37 36 36 35 35 35 36 36 36 34 33 35 35 30 30 30 27 27 28 26 26 26 25 23 24 24 23 23 24 23 21 21 22 20 21 21 20 22 24 23 25 25 24 24 22 20 21 21 21 18 17 19 20 22 23 21 20 20
44 45 46 48 49 49 49 46 44 43 40 39 41 40 40 42 43 43 41 39 38 38 39 40 39 37 38 38 37 37 38 38 37 37 36 36 37 37 36 35 34 34 35 32 31 30 28 28 28 27 26 26 25 26 27 26 24 23 24 24 23 22 22 22 22 21 20 22 23 23 23 24 25 25 23 23 22 19 19 18 19 21 22 22 22 21 21 21
44 44 45 47 48 49 50 47 45 44 42 42 43 40 38 39 40 41 41 41 40 39 39 39 38 37 38 38 36 36 38 38 38 38 38 38 38 38 37 35 33 32 32 33 32 30 29 30 29 28 27 27 28 28 28 28 26 25 26 26 26 24 23 23 24 23 21 22 22 23 25 25 24 22 21 21 20 19 20 21 21 22 23 23 22 21 22 21
44 44 45 46 46 48 48 46 44 44 42 43 44 42 39 37 36 37 39 41 41 41 39 38 38 38 38 38 38 37 37 37 38 38 38 38 39 38 38 36 33 30 29 31 33 32 31 31 30 29 29 29 30 29 28 29 28 28 28 28 28 27 24 23 25 25 24 24 23 23 27 28 25 22 22 21 21 21 22 22 22 23 24 24 23 23 22 21
44 44 44 45 46 48 48 44 44 45 44 44 45 43 41 39 36 36 37 39 41 40 39 38 39 39 39 39 40 38 37 37 38 38 38 38 39 37 36 36 33 31 30 31 34 33 30 30 29 30 31 31 30 29 28 29 29 28 29 29 28 28 27 25 25 25 25 27 26 23 27 30 27 24 24 24 23 23 23 22 23 25 25 25 24 23 23 22
45 46 45 45 47 49 47 44 45 46 45 45 45 44 42 40 38 37 36 38 39 38 38 38 37 37 37 37 37 37 38 38 39 40 38 38 38 36 35 35 33 32 31 31 32 31 29 29 29 28 29 29 29 29 28 28 28 29 30 29 28 29 29 27 27 26 25 28 27 23 27 30 27 24 24 25 25 24 24 24 24 26 26 25 24 24 23 22
45 46 46 46 48 49 47 45 45 46 46 45 45 45 44 42 41 40 38 39 39 38 38 39 37 36 35 33 34 36 38 37 38 40 39 38 38 37 36 36 35 33 33 31 30 29 29 29 28 26 25 26 27 28 29 30 30 30 31 30 30 30 29 28 28 26 28 32 29 26 30 31 27 25 25 25 26 26 27 27 27 27 27 26 26 25 24 23
43 45 46 47 50 50 49 47 46 45 46 47 46 45 45 43 42 43 40 39 39 38 38 39 37 36 35 33 34 35 37 38 38 38 38 38 37 37 37 38 37 36 35 33 31 30 30 31 30 28 28 29 29 29 30 30 29 29 30 30 31 31 30 30 29 28 32 33 29 30 34 32 29 28 28 28 28 29 29 29 29 28 28 28 28 27 26 25
43 43 44 45 48 50 50 50 48 45 45 48 47 46 46 44 42 43 42 40 40 39 38 37 36 36 36 36 35 35 37 39 38 36 37 38 37 36 37 38 38 38 36 34 33 31 30 32 34 35 36 36 34 32 29 27 28 30 32 31 32 33 32 31 31 33 34 29 29 35 37 36 34 32 31 32 30 30 31 30 30 29 30 30 29 29 28 27
44 43 43 43 45 48 49 49 49 47 46 46 47 47 49 47 43 42 42 42 41 40 39 37 35 36 38 38 38 37 37 37 37 36 37 37 35 34 35 36 38 38 36 34 33 32 31 33 36 38 39 40 38 34 30 30 31 33 33 32 34 34 33 34 37 37 32 28 35 38 33 35 40 35 32 33 31 31 32 31 31 32 32 31 30 29 29 29
45 45 44 42 42 45 49 49 48 48 49 48 46 46 49 50 47 43 42 42 42 41 40 38 38 39 40 40 40 39 38 37 37 38 37 35 34 33 33 34 35 36 35 34 34 33 32 34 36 37 39 40 39 35 33 34 34 34 34 34 35 35 36 39 41 39 33 33 41 40 33 37 42 36 34 34 32 33 34 33 34 34 33 32 32 31 31 31
45 46 45 43 41 42 47 49 48 47 48 49 48 48 49 51 51 47 43 42 42 42 41 41 42 43 42 41 40 41 41 39 39 39 36 35 34 34 34 34 34 34 34 34 34 33 33 34 35 36 38 40 39 35 34 35 35 35 36 36 36 38 40 42 42 40 38 40 45 43 39 42 42 36 35 35 34 36 37 35 35 34 33 34 33 33 33 32
45 45 45 44 43 42 43 45 47 47 47 47 48 50 50 50 51 49 46 44 43 43 44 45 45 43 42 40 40 42 43 41 41 39 35 35 35 35 34 34 33 33 33 33 33 32 33 34 33 33 35 38 38 34 33 35 36 36 37 37 39 41 41 41 40 38 38 41 44 42 43 45 40 35 35 35 34 36 36 35 34 33 33 34 33 34 34 34
46 46 45 44 43 43 42 41 43 45 47 47 47 47 49 51 51 48 47 48 47 45 45 46 45 42 40 41 41 43 43 42 41 39 35 34 35 34 34 34 33 32 33 33 32 32 33 32 31 30 33 36 36 33 33 34 35 36 39 41 42 41 39 38 38 38 38 40 41 40 42 43 38 33 35 35 33 34 34 34 34 34 34 34 34 35 36 35
46 46 47 46 44 44 43 41 41 43 45 47 48 47 48 49 49 47 46 48 48 48 46 46 44 41 41 43 44 44 43 41 41 39 37 35 35 35 35 34 33 33 33 32 32 32 32 31 30 29 31 35 33 30 31 32 31 35 40 43 42 39 37 37 39 39 38 38 38 39 41 41 35 32 34 34 33 33 34 34 34 35 35 35 36 36 36 36
Wind_Direction
212 212 212 213 213 212 212 211 210 209 208 207 207 207 208 208 207 206 205 205 205 207 209 210 209 210 211 212 211 211 212 205 201 199 198 202 204 204 205 204 205 209 210 210 208 207 206 203 211 218 212 214 218 223 230 232 235 240 236 240 249 247 249 245 238 245 252 249 249 250 250 242 256 262 247 252 254 234 246 263 257 267 263 241 231 211 202 206
213 213 214 213 213 213 212 211 210 209 208 208 208 209 209 208 208 207 206 206 207 210 211 211 212 213 215 215 215 215 213 207 204 203 204 209 209 207 207 206 207 211 211 209 208 207 206 210 220 220 212 214 224 228 231 239 239 239 239 240 244 241 250 255 243 250 258 244 241 253 257 248 249 248 240 250 249 233 240 263 262 258 252 243 231 219 217 214
214 214 214 214 214 213 213 212 211 210 209 208 209 209 209 208 208 207 207 208 210 212 213 213 215 217 218 218 219 219 214 209 209 211 211 210 208 206 206 205 207 209 207 207 209 210 208 213 219 218 216 218 227 231 232 246 246 243 242 245 248 241 250 264 251 251 255 236 230 261 264 255 252 246 246 246 240 239 240 241 244 243 237 232 232 228 222 220
214 215 215 214 214 214 213 212 211 210 209 209 209 209 209 209 208 208 209 210 212 214 215 216 218 219 220 221 222 221 215 210 212 214 212 208 205 204 203 205 207 208 208 210 212 212 213 215 218 219 220 227 237 236 238 250 248 248 244 240 243 240 251 262 255 258 252 234 237 259 267 260 256 253 250 237 238 256 252 240 239 239 235 231 233 233 229 227
214 215 214 214 214 213 213 212 211 211 210 210 210 210 210 210 210 210 211 213 214 216 217 218 220 221 222 224 223 221 214 211 215 214 210 206 202 202 202 205 208 211 212 214 214 212 215 218 220 226 227 232 243 241 243 252 246 249 256 245 237 237 252 257 256 261 248 247 258 256 262 262 261 261 249 235 244 256 254 248 246 243 238 234 234 234 235 233
213 214 214 214 214 213 213 212 212 211 211 211 211 211 212 212 212 213 214 215 217 218 219 220 221 222 225 225 222 218 212 213 215 210 208 204 200 201 203 208 213 215 215 214 215 213 217 224 226 233 235 236 241 237 240 254 248 243 255 255 247 244 244 248 253 259 252 251 258 257 265 268 268 270 257 246 250 256 260 256 249 246 240 236 238 237 239 238
213 213 213 214 214 214 214 213 213 213 212 213 213 213 214 214 214 215 217 218 219 220 221 222 222 224 226 223 220 217 213 214 212 206 206 203 202 204 207 213 216 218 217 215 221 218 219 228 230 231 236 239 238 238 242 255 253 238 248 257 258 252 239 240 248 255 256 253 259 266 273 270 263 269 269 259 257 259 264 262 248 243 237 235 240 242 242 240
215 215 215 215 215 215 215 215 214 214 214 214 215 215 215 216 216 217 219 220 221 221 222 222 223 225 225 221 218 219 218 215 211 207 206 205 206 208 212 218 220 220 217 218 223 221 222 229 232 233 237 241 237 240 246 254 262 250 249 256 260 256 246 246 251 254 258 262 269 273 272 270 266 271 275 264 259 259 258 257 249 242 239 239 242 244 243 242
216 217 216 216 216 216 216 216 216 216 216 216 216 217 217 217 218 219 221 222 222 222 223 223 224 226 223 219 217 219 221 216 211 210 210 210 212 214 216 221 224 222 220 224 224 223 228 230 235 236 235 239 239 244 250 253 257 251 249 256 258 258 256 252 254 257 261 266 270 274 276 277 275 277 276 266 258 256 253 251 249 244 243 244 246 245 243 242
217 218 218 219 218 218 218 218 218 217 217 217 218 218 218 219 220 221 222 223 223 223 224 224 226 225 222 220 219 221 221 215 213 213 213 215 217 219 222 224 225 223 223 228 228 228 232 232 237 237 233 241 244 249 256 251 250 251 251 255 255 260 263 256 257 263 268 271 268 270 277 281 281 277 275 270 258 252 249 247 247 245 246 247 248 248 244 242
219 220 220 220 220 220 220 220 220 220 220 220 220 220 220 221 221 222 223 224 224 224 224 225 226 224 221 220 219 222 220 215 215 215 217 219 220 222 224 225 224 222 224 227 230 233 233 235 239 240 242 245 247 253 257 251 251 255 258 262 264 269 269 259 260 264 268 274 269 268 279 284 285 278 273 268 256 250 246 244 247 246 249 250 250 250 247 244
221 221 221 221 221 222 222 222 222 222 223 222 222 223 222 223 223 224 225 225 225 225 225 226 226 223 222 222 222 223 220 218 219 218 220 220 220 223 223 224 223 222 224 226 232 235 235 239 239 242 245 242 246 254 253 252 254 258 262 265 270 279 275 264 265 261 261 273 270 271 286 287 279 272 274 269 255 251 247 245 248 247 250 251 251 251 250 246
223 223 223 223 223 223 223 223 224 224 225 225 225 225 225 225 225 226 226 226 226 226 226 227 226 224 223 225 225 223 222 221 220 219 221 222 222 224 224 224 225 226 227 227 233 236 237 241 239 240 244 243 249 253 252 257 258 259 264 263 268 280 276 272 274 262 259 271 269 271 284 284 277 272 272 268 255 250 249 249 250 250 251 252 252 252 250 247
225 224 224 224 224 224 225 225 225 225 226 226 227 226 226 226 226 227 227 227 227 227 228 227 226 224 224 227 227 224 223 223 222 222 223 224 224 226 228 229 230 231 231 231 235 238 239 242 242 244 247 249 250 252 260 267 264 262 265 266 268 270 270 276 276 258 261 273 269 271 281 281 281 279 272 264 256 251 250 251 252 252 253 253 254 252 251 248
226 226 226 226 226 226 226 226 226 226 227 228 228 227 227 227 227 228 227 228 228 228 228 227 226 225 227 229 228 226 225 224 225 225 226 226 226 228 230 231 232 234 233 234 237 239 242 243 246 248 251 255 255 257 266 269 268 266 265 269 271 266 269 279 274 256 262 274 271 272 279 281 282 282 275 263 258 254 253 254 253 253 253 253 254 253 253 251
228 227 227 227 227 227 227 227 227 227 228 229 228 227 227 227 228 228 228 228 228 228 227 226 226 225 227 230 229 228 227 226 227 227 227 227 227 229 229 230 233 235 236 238 240 241 245 247 248 250 252 256 258 260 267 269 270 270 265 265 269 267 271 279 276 266 266 272 273 273 277 281 283 283 277 266 261 258 258 258 256 255 256 255 255 255 254 252
229 228 228 228 228 228 228 228 228 228 229 229 229 228 228 228 228 229 229 228 226 226 226 226 227 227 230 230 229 230 228 228 228 228 229 229 229 228 229 232 234 236 238 241 243 244 248 249 250 253 257 260 260 261 265 267 268 270 268 267 267 266 268 274 277 274 271 272 273 274 276 277 280 282 277 268 264 262 261 260 258 257 257 256 256 255 254 253
229 229 229 229 229 229 229 228 228 229 230 230 230 229 229 229 229 229 228 226 225 225 227 227 226 229 232 230 229 230 229 228 228 228 229 230 229 228 231 235 235 236 239 243 246 246 249 252 252 255 262 265 262 259 258 260 262 264 264 267 269 268 268 271 275 273 270 273 272 272 275 275 278 280 276 269 264 262 262 262 261 259 257 257 256 256 256 254
229 229 229 230 230 230 230 229 229 229 230 230 230 229 229 229 229 228 228 226 224 225 228 228 225 227 232 230 228 230 229 227 228 228 229 230 230 231 234 236 236 236 239 244 248 247 247 254 255 255 259 259 256 254 253 256 257 258 260 264 265 268 271 271 273 271 267 272 272 269 272 274 276 277 275 270 264 261 264 265 265 263 260 258 257 257 257 256
230 230 230 230 230 230 230 230 230 230 230 229 229 228 228 228 229 231 230 228 227 227 228 229 226 228 232 231 228 228 228 228 230 230 230 230 230 231 235 238 239 242 243 242 247 249 248 251 253 254 254 253 252 252 255 259 259 261 264 267 267 267 273 274 274 274 270 271 274 271 273 275 275 276 275 271 266 264 266 266 265 262 260 259 257 257 257 256
231 230 230 230 230 230 231 231 231 230 230 229 228 228 228 227 228 231 231 231 232 231 231 232 230 230 233 232 228 227 228 231 233 232 230 230 229 231 237 239 241 246 247 243 246 252 250 250 253 254 252 252 253 255 259 263 263 266 266 269 271 270 272 274 274 278 276 274 277 277 276 276 275 275 275 272 267 266 265 264 263 261 259 259 258 257 256 257
231 231 230 230 230 230 231 231 231 230 230 230 229 229 230 229 230 232 232 234 236 233 233 233 233 234 234 233 231 229 231 233 235 234 232 231 232 235 238 239 242 245 247 246 249 254 254 255 255 254 254 255 259 259 259 262 263 266 267 269 272 272 275 277 277 281 279 277 280 281 279 277 276 276 275 272 268 268 266 263 263 261 259 258 257 257 256 255
231 231 231 230 230 230 231 231 231 230 230 230 230 230 230 231 232 233 233 236 238 235 233 233 233 234 234 234 233 231 232 234 234 234 232 231 234 237 237 239 243 245 246 247 247 250 253 258 257 252 251 255 260 261 258 262 265 265 266 267 271 273 276 277 279 281 280 279 281 283 282 279 278 278 277 274 271 270 269 266 266 264 261 260 259 258 255 253
231 231 231 231 230 230 231 231 231 231 231 231 232 231 231 232 233 235 235 237 239 236 234 234 233 233 232 234 232 230 233 235 234 234 232 231 234 239 239 240 244 245 247 246 246 249 253 258 258 252 250 253 258 261 259 261 265 266 265 265 269 272 272 273 279 282 283 283 283 285 284 281 278 277 277 279 278 275 272 269 268 266 264 263 262 260 257 254
232 231 231 231 231 231 230 231 231 231 231 231 232 231 232 234 235 236 237 240 240 237 236 235 235 235 233 233 232 231 235 237 236 234 232 231 233 239 243 243 244 246 247 247 249 253 255 257 258 256 256 255 256 260 260 260 265 269 267 264 266 269 270 274 281 284 284 283 284 286 284 281 281 278 279 284 285 280 275 271 268 267 265 263 261 260 258 256
232 232 231 230 231 230 230 232 232 231 231 232 232 230 231 233 234 236 237 242 243 238 235 234 235 235 232 232 231 232 238 240 238 235 233 233 235 239 243 245 247 248 247 249 253 255 255 254 255 255 255 255 256 261 262 260 263 268 268 265 265 268 271 274 277 279 279 278 281 282 278 280 282 280 280 283 282 280 278 274 270 268 267 264 262 260 258 255
232 232 231 230 230 229 231 233 231 230 232 233 232 229 230 231 232 235 237 244 244 236 233 234 234 234 233 231 228 230 238 238 236 236 234 234 238 241 244 244 247 249 248 250 253 255 253 253 254 253 254 255 257 262 263 259 260 266 269 267 267 268 271 272 272 273 275 277 280 280 278 280 280 278 281 280 279 281 280 277 274 270 268 267 265 263 259 256
233 233 231 230 229 229 232 232 230 230 232 233 230 227 228 229 231 233 234 240 240 234 233 235 234 234 234 231 227 231 238 237 236 237 235 235 238 242 245 244 245 248 248 248 251 255 254 252 252 251 254 257 259 263 261 257 262 267 268 269 269 270 271 274 274 273 277 279 277 276 278 278 277 277 283 283 279 282 280 275 274 273 271 270 268 265 261 258
233 233 232 231 229 230 232 232 231 231 231 231 229 226 226 228 230 233 234 236 237 235 235 233 233 234 233 230 230 234 238 239 240 238 236 236 238 243 246 245 245 246 248 250 251 255 256 254 253 252 254 258 261 265 260 255 262 266 267 273 276 277 277 278 275 274 277 276 271 272 274 276 276 276 278 282 280 279 278 276 276 275 275 273 271 269 264 261
232 232 231 229 229 230 231 232 231 230 230 230 228 224 224 228 230 230 233 235 237 238 237 234 234 234 230 230 235 238 238 241 242 237 237 240 240 244 246 245 247 247 251 255 253 254 257 258 257 257 257 258 260 264 264 260 262 264 269 275 279 279 278 276 274 274 275 274 271 271 269 270 275 276 274 277 278 276 277 279 279 277 277 278 276 271 267 263
232 231 229 228 229 229 230 232 231 229 229 228 226 222 224 230 230 229 232 237 239 239 237 236 236 234 230 231 236 239 239 242 240 236 239 242 242 244 244 244 246 248 252 255 254 257 259 258 258 259 258 258 260 264 267 267 265 265 268 271 274 277 277 276 275 274 272 273 275 276 271 264 265 272 277 279 280 279 277 276 276 277 279 280 278 274 269 266
234 230 228 228 230 228 229 232 230 227 227 227 224 223 225 229 231 231 234 236 239 240 237 237 237 235 233 234 237 238 239 241 240 238 240 241 241 242 242 243 243 246 250 250 252 257 257 256 258 260 258 256 258 262 266 268 267 265 265 265 268 274 277 274 273 271 269 271 276 278 274 265 263 270 278 280 281 279 276 275 276 278 280 281 278 275 271 268
235 232 229 229 230 229 230 231 228 225 225 225 225 226 227 229 230 231 232 233 236 239 239 238 238 235 233 235 237 238 239 242 240 240 242 241 242 243 245 246 244 245 249 249 250 253 256 259 258 257 259 257 255 256 260 263 262 260 259 259 260 266 272 271 271 272 271 272 276 274 270 269 271 275 275 273 275 278 280 282 280 278 279 280 278 274 271 268
236 233 231 230 231 230 229 229 226 224 223 223 224 226 227 229 232 231 232 234 236 240 242 240 238 235 234 237 239 237 239 242 240 240 243 241 241 243 245 246 245 247 249 249 251 249 252 259 255 253 258 257 255 257 260 262 261 261 261 258 256 256 261 266 267 267 270 274 275 270 267 267 271 277 276 274 278 283 285 284 282 281 280 280 279 274 270 267
236 234 232 230 231 231 229 227 225 222 221 222 224 226 225 229 232 233 234 235 235 239 242 241 237 236 237 240 241 238 238 241 240 240 242 241 242 243 243 244 243 244 246 248 252 251 252 258 258 259 260 255 255 260 261 260 261 262 260 256 256 255 257 264 266 264 269 275 272 265 264 267 270 276 277 278 283 287 285 283 283 284 283 282 278 274 270 267
235 234 232 230 230 229 228 225 222 220 221 222 224 226 227 230 233 234 236 235 234 235 237 239 240 238 237 239 240 239 239 241 239 240 242 244 246 245 244 246 244 242 244 246 251 252 254 260 261 262 262 257 256 258 258 256 256 257 254 251 255 257 256 261 267 270 271 271 270 265 266 273 277 277 277 278 280 283 283 283 283 283 284 282 278 274 270 268
235 234 232 230 228 227 225 223 220 220 222 224 226 227 230 234 235 236 236 236 234 233 234 238 240 239 238 239 240 239 240 242 240 241 243 244 247 245 244 248 246 242 245 248 251 252 253 259 261 258 258 259 257 256 257 257 252 250 252 252 256 260 258 258 265 272 270 268 270 266 266 272 274 275 281 282 277 278 279 279 280 283 285 283 279 274 270 268
235 234 233 231 228 226 224 222 220 221 225 228 229 230 233 235 236 236 236 236 234 232 234 238 239 240 239 240 241 240 239 241 240 241 243 244 248 246 242 247 247 243 244 247 251 252 252 256 261 258 255 257 257 253 254 255 252 250 253 253 253 256 257 256 258 264 265 267 272 271 267 268 266 268 278 279 273 275 277 275 279 282 282 282 280 275 271 269
234 234 234 231 228 226 225 223 222 225 228 229 229 232 235 236 236 236 235 236 235 233 234 236 238 240 240 240 241 240 239 241 240 241 243 244 248 247 242 244 248 244 242 243 247 251 250 253 258 257 254 255 254 250 248 249 252 254 254 253 254 255 255 253 254 258 261 265 272 274 271 269 267 268 272 270 267 270 274 276 279 280 280 281 279 276 272 268
233 234 234 230 227 226 224 224 226 228 230 231 232 234 236 236 236 236 235 235 236 236 237 237 237 238 239 239 240 240 241 242 241 242 244 244 246 249 245 243 246 245 241 241 245 249 250 251 254 255 254 251 250 249 247 246 249 250 249 249 250 253 255 256 256 256 258 263 268 273 273 270 270 271 269 264 263 267 273 278 280 279 280 281 279 277 275 269
233 234 233 228 225 224 222 224 228 229 230 233 234 235 236 236 235 235 234 234 235 237 237 238 237 238 239 239 240 241 241 242 241 242 245 244 244 248 246 242 243 243 241 242 245 247 248 249 250 251 250 249 250 253 252 249 249 249 249 249 248 249 250 254 258 256 256 260 262 267 272 270 269 270 268 263 265 272 275 276 279 279 280 282 281 281 278 271
232 233 231 227 223 221 221 227 231 229 230 232 234 235 235 236 235 234 232 231 233 236 236 238 238 238 239 240 241 241 241 242 242 242 244 244 243 246 245 241 238 237 239 243 245 246 247 247 247 248 249 250 252 254 253 250 250 251 252 251 250 249 247 248 256 258 257 259 260 264 271 272 271 269 266 266 270 276 277 275 277 279 281 283 284 284 281 274
232 232 231 227 222 220 222 228 230 228 231 233 234 235 235 236 235 234 231 229 230 232 233 235 236 236 238 239 239 239 239 241 242 241 244 246 244 245 243 239 237 238 241 245 246 245 244 243 243 247 252 254 254 254 254 251 249 248 251 250 248 249 249 250 255 256 256 257 257 261 267 270 274 273 270 273 277 279 280 278 277 279 282 283 284 284 281 275
233 232 231 227 223 221 224 228 228 227 230 232 233 233 234 236 234 233 232 230 230 231 232 232 233 233 236 237 238 238 238 241 242 242 244 246 246 244 241 237 237 240 243 244 242 240 239 239 240 244 250 252 251 251 251 249 248 249 252 251 249 249 249 251 254 255 258 256 251 255 263 266 271 275 275 278 281 281 280 279 278 279 280 281 282 283 280 276
233 231 229 227 224 223 225 228 228 229 229 230 231 231 233 234 233 232 234 233 232 232 232 233 233 234 236 237 238 239 238 240 243 244 244 246 248 246 241 237 237 240 243 242 237 236 240 241 239 239 242 244 245 247 247 248 249 252 253 250 249 247 244 247 252 252 255 257 251 252 260 264 268 272 273 275 279 280 280 279 280 280 280 279 279 279 279 276
231 230 228 226 226 226 228 227 227 230 230 229 230 231 231 232 233 232 233 233 233 232 233 235 234 234 236 237 238 240 239 241 243 244 244 245 247 247 242 238 238 239 241 240 236 239 245 245 241 240 242 243 247 250 250 249 248 250 250 247 246 247 245 247 250 249 252 258 257 255 259 264 266 266 269 272 274 276 278 280 281 280 279 278 278 278 278 276
229 229 227 226 227 228 229 228 228 230 230 229 230 231 230 231 233 232 232 233 234 233 235 236 234 233 234 234 237 239 239 241 243 243 244 244 246 248 244 239 238 239 239 239 238 241 246 244 241 242 244 246 250 251 248 247 247 248 249 246 245 246 246 245 247 250 252 257 261 260 259 263 266 265 266 270 271 274 277 279 279 279 278 277 277 277 276 274
227 228 227 227 229 229 228 228 228 229 229 229 231 231 230 231 231 231 232 233 235 234 235 236 234 233 234 233 235 237 238 239 241 241 243 245 246 247 245 243 241 239 239 240 240 242 244 243 243 244 247 249 251 250 247 246 249 249 247 246 246 246 245 246 247 251 252 253 259 263 260 261 266 267 266 267 269 271 274 275 275 277 278 277 276 275 274 272
227 228 228 228 229 231 231 229 227 228 229 230 231 232 231 230 231 232 234 234 234 233 234 235 235 235 236 235 234 236 236 237 239 240 241 242 244 244 244 244 243 241 240 240 241 243 244 244 244 245 248 251 251 248 246 246 249 250 248 248 248 247 246 248 250 252 252 253 259 264 263 263 267 268 266 268 268 269 271 273 274 276 276 275 274 274 273 272
226 227 227 228 229 231 233 230 228 228 229 229 231 232 232 231 231 232 234 233 233 233 233 235 236 236 236 235 234 236 236 236 238 240 240 240 242 243 242 242 242 241 240 240 241 243 243 245 246 245 247 250 250 248 246 245 246 249 250 251 250 249 249 250 252 253 253 256 260 263 265 266 267 267 268 269 268 269 271 273 272 273 273 273 273 273 272 272
227 227 227 228 230 230 231 230 228 229 229 229 230 231 231 232 232 232 234 234 234 235 234 235 238 238 237 236 235 237 238 237 238 240 239 240 241 241 242 242 240 238 238 239 241 242 242 244 246 244 245 249 250 247 246 246 248 249 251 251 250 250 251 251 252 253 252 255 259 261 262 265 267 268 269 269 267 268 270 270 270 271 271 271 271 270 271 271
228 229 227 228 229 228 229 230 229 229 230 229 229 231 232 233 232 232 234 235 235 236 236 237 238 238 238 236 235 237 239 238 239 241 241 241 242 241 240 240 237 236 236 238 241 242 239 240 243 242 244 250 251 246 245 248 249 250 251 251 251 251 251 252 254 254 253 254 257 258 261 266 269 269 268 268 268 267 267 268 269 270 270 270 269 269 269 270